Time,TemperatureF,DewpointF,PressureIn,WindDirection,WindDirectionDegrees,WindSpeedMPH,WindSpeedGustMPH,Humidity,HourlyPrecipIn,Conditions,Clouds,dailyrainin,SoftwareType,DateUTC
2013-07-27 00:07:00,68.2,65.0,29.88,SSW,211,5.0,-999.0,90,-99.99,,,0.00,weatherlink.com 1.10,2013-07-27 04:07:00,
2013-07-27 00:22:00,68.0,65.0,29.87,SSW,200,9.0,-999.0,90,-99.99,,,0.00,weatherlink.com 1.10,2013-07-27 04:22:00,
2013-07-27 00:37:00,68.2,65.0,29.88,SSW,198,3.0,-999.0,90,-99.99,,,0.00,weatherlink.com 1.10,2013-07-27 04:37:00,
2013-07-27 00:52:00,68.2,65.0,29.87,SW,214,5.0,-999.0,90,-99.99,,,0.00,weatherlink.com 1.10,2013-07-27 04:52:00,
2013-07-27 01:07:00,67.7,65.0,29.87,SSW,197,4.0,-999.0,92,-99.99,,,0.00,weatherlink.com 1.10,2013-07-27 05:07:00,
2013-07-27 01:22:00,67.6,65.0,29.87,SSW,192,4.0,-999.0,92,-99.99,,,0.00,weatherlink.com 1.10,2013-07-27 05:22:00,
2013-07-27 01:37:00,67.6,66.0,29.86,SSW,212,5.0,-999.0,93,-99.99,,,0.00,weatherlink.com 1.10,2013-07-27 05:37:00,
2013-07-27 01:52:00,67.4,66.0,29.86,SSW,205,3.0,-999.0,94,-99.99,,,0.00,weatherlink.com 1.10,2013-07-27 05:52:00,
2013-07-27 02:07:00,67.4,66.0,29.86,SW,214,5.0,-999.0,94,-99.99,,,0.00,weatherlink.com 1.10,2013-07-27 06:07:00,
2013-07-27 02:22:00,67.3,66.0,29.86,SSW,201,4.0,-999.0,94,-99.99,,,0.00,weatherlink.com 1.10,2013-07-27 06:22:00,
2013-07-27 02:37:00,67.5,66.0,29.85,SW,218,5.0,-999.0,95,-99.99,,,0.00,weatherlink.com 1.10,2013-07-27 06:37:00,
2013-07-27 02:52:00,67.6,66.0,29.85,SW,220,6.0,-999.0,95,-99.99,,,0.00,weatherlink.com 1.10,2013-07-27 06:52:00,
2013-07-27 03:07:00,67.7,66.0,29.85,SW,220,5.0,-999.0,94,-99.99,,,0.00,weatherlink.com 1.10,2013-07-27 07:07:00,
2013-07-27 03:22:00,67.8,66.0,29.84,SW,219,5.0,-999.0,94,-99.99,,,0.00,weatherlink.com 1.10,2013-07-27 07:22:00,
2013-07-27 03:37:00,67.8,66.0,29.83,SW,230,4.0,-999.0,94,-99.99,,,0.00,weatherlink.com 1.10,2013-07-27 07:37:00,
2013-07-27 03:52:00,67.4,66.0,29.83,SW,218,3.0,-999.0,94,-99.99,,,0.00,weatherlink.com 1.10,2013-07-27 07:52:00,
2013-07-27 04:07:00,67.4,66.0,29.83,SW,221,7.0,-999.0,95,-99.99,,,0.00,weatherlink.com 1.10,2013-07-27 08:07:00,
2013-07-27 04:22:00,67.5,66.0,29.83,SW,234,6.0,-999.0,95,-99.99,,,0.00,weatherlink.com 1.10,2013-07-27 08:22:00,
2013-07-27 04:37:00,67.7,66.0,29.82,SW,233,4.0,-999.0,95,-99.99,,,0.00,weatherlink.com 1.10,2013-07-27 08:37:00,
2013-07-27 04:52:00,67.7,66.0,29.82,SW,231,8.0,-999.0,95,-99.99,,,0.00,weatherlink.com 1.10,2013-07-27 08:52:00,
2013-07-27 05:07:00,67.6,66.0,29.83,WSW,251,4.0,-999.0,95,-99.99,,,0.00,weatherlink.com 1.10,2013-07-27 09:07:00,
2013-07-27 05:22:00,67.4,66.0,29.82,WSW,251,2.0,-999.0,95,-99.99,,,0.00,weatherlink.com 1.10,2013-07-27 09:22:00,
2013-07-27 05:37:00,67.3,66.0,29.83,WSW,251,4.0,-999.0,96,-99.99,,,0.00,weatherlink.com 1.10,2013-07-27 09:37:00,
2013-07-27 05:52:00,67.1,66.0,29.83,WNW,283,1.0,-999.0,95,-99.99,,,0.00,weatherlink.com 1.10,2013-07-27 09:52:00,
2013-07-27 06:07:00,65.9,63.0,29.83,West,273,2.0,-999.0,91,-99.99,,,0.00,weatherlink.com 1.10,2013-07-27 10:07:00,
2013-07-27 06:22:00,65.2,63.0,29.83,West,270,4.0,-999.0,91,-99.99,,,0.00,weatherlink.com 1.10,2013-07-27 10:22:00,
2013-07-27 06:37:00,64.4,62.0,29.84,West,266,3.0,-999.0,90,-99.99,,,0.00,weatherlink.com 1.10,2013-07-27 10:37:00,
2013-07-27 06:53:00,63.8,61.0,29.84,West,267,3.0,-999.0,90,-99.99,,,0.00,weatherlink.com 1.10,2013-07-27 10:53:00,
2013-07-27 07:08:00,62.9,60.0,29.85,WNW,291,4.0,-999.0,90,-99.99,,,0.00,weatherlink.com 1.10,2013-07-27 11:08:00,
2013-07-27 07:23:00,62.2,60.0,29.85,West,263,1.0,-999.0,91,-99.99,,,0.00,weatherlink.com 1.10,2013-07-27 11:23:00,
2013-07-27 07:38:00,62.2,60.0,29.85,WSW,250,3.0,-999.0,92,-99.99,,,0.00,weatherlink.com 1.10,2013-07-27 11:38:00,
2013-07-27 07:53:00,62.0,60.0,29.85,WSW,252,4.0,-999.0,92,-99.99,,,0.00,weatherlink.com 1.10,2013-07-27 11:53:00,
2013-07-27 08:08:00,62.3,60.0,29.85,West,267,4.0,-999.0,91,-99.99,,,0.00,weatherlink.com 1.10,2013-07-27 12:08:00,
2013-07-27 08:23:00,62.4,59.0,29.85,West,275,6.0,-999.0,89,-99.99,,,0.00,weatherlink.com 1.10,2013-07-27 12:23:00,
2013-07-27 08:38:00,62.6,59.0,29.85,WSW,253,4.0,-999.0,89,-99.99,,,0.00,weatherlink.com 1.10,2013-07-27 12:38:00,
2013-07-27 08:53:00,63.1,60.0,29.85,WNW,286,3.0,-999.0,88,-99.99,,,0.00,weatherlink.com 1.10,2013-07-27 12:53:00,
2013-07-27 09:08:00,63.4,60.0,29.86,WSW,250,5.0,-999.0,87,-99.99,,,0.00,weatherlink.com 1.10,2013-07-27 13:08:00,
2013-07-27 09:23:00,64.1,60.0,29.85,West,266,4.0,-999.0,86,-99.99,,,0.00,weatherlink.com 1.10,2013-07-27 13:23:00,
2013-07-27 09:38:00,64.7,60.0,29.85,West,261,6.0,-999.0,84,-99.99,,,0.00,weatherlink.com 1.10,2013-07-27 13:38:00,
2013-07-27 09:53:00,65.8,61.0,29.85,WSW,254,3.0,-999.0,83,-99.99,,,0.00,weatherlink.com 1.10,2013-07-27 13:53:00,
2013-07-27 10:08:00,66.2,61.0,29.85,West,281,2.0,-999.0,82,-99.99,,,0.00,weatherlink.com 1.10,2013-07-27 14:08:00,
2013-07-27 10:23:00,67.0,61.0,29.84,WNW,294,4.0,-999.0,80,-99.99,,,0.00,weatherlink.com 1.10,2013-07-27 14:23:00,
2013-07-27 10:38:00,67.7,62.0,29.84,West,268,2.0,-999.0,81,-99.99,,,0.00,weatherlink.com 1.10,2013-07-27 14:38:00,
2013-07-27 10:53:00,68.8,61.0,29.84,West,273,5.0,-999.0,77,-99.99,,,0.00,weatherlink.com 1.10,2013-07-27 14:53:00,
2013-07-27 11:08:00,69.3,62.0,29.84,WSW,253,5.0,-999.0,77,-99.99,,,0.00,weatherlink.com 1.10,2013-07-27 15:08:00,
2013-07-27 11:23:00,70.1,62.0,29.84,WSW,256,4.0,-999.0,76,-99.99,,,0.00,weatherlink.com 1.10,2013-07-27 15:23:00,
2013-07-27 11:38:00,71.3,62.0,29.84,West,267,5.0,-999.0,73,-99.99,,,0.00,weatherlink.com 1.10,2013-07-27 15:38:00,
2013-07-27 11:53:00,71.4,62.0,29.84,West,266,7.0,-999.0,71,-99.99,,,0.00,weatherlink.com 1.10,2013-07-27 15:53:00,
2013-07-27 12:08:00,71.7,62.0,29.84,West,261,8.0,-999.0,72,-99.99,,,0.00,weatherlink.com 1.10,2013-07-27 16:08:00,
2013-07-27 12:23:00,71.9,62.0,29.83,WSW,251,6.0,-999.0,70,-99.99,,,0.00,weatherlink.com 1.10,2013-07-27 16:23:00,
2013-07-27 12:38:00,72.8,60.0,29.83,West,261,7.0,-999.0,65,-99.99,,,0.00,weatherlink.com 1.10,2013-07-27 16:38:00,
2013-07-27 12:53:00,73.6,62.0,29.83,SW,227,12.0,-999.0,68,-99.99,,,0.00,weatherlink.com 1.10,2013-07-27 16:53:00,
2013-07-27 13:08:00,72.4,61.0,29.84,West,259,10.0,-999.0,68,-99.99,,,0.00,weatherlink.com 1.10,2013-07-27 17:08:00,
2013-07-27 13:23:00,73.7,61.0,29.83,WSW,254,6.0,-999.0,64,-99.99,,,0.00,weatherlink.com 1.10,2013-07-27 17:23:00,
2013-07-27 13:38:00,72.6,61.0,29.83,West,265,5.0,-999.0,67,-99.99,,,0.00,weatherlink.com 1.10,2013-07-27 17:38:00,
2013-07-27 13:53:00,73.1,59.0,29.83,WNW,285,7.0,-999.0,62,-99.99,,,0.00,weatherlink.com 1.10,2013-07-27 17:53:00,
2013-07-27 14:08:00,71.7,61.0,29.83,West,270,11.0,-999.0,69,-99.99,,,0.00,weatherlink.com 1.10,2013-07-27 18:08:00,
2013-07-27 14:23:00,71.0,61.0,29.84,West,271,4.0,-999.0,71,-99.99,,,0.00,weatherlink.com 1.10,2013-07-27 18:23:00,
2013-07-27 14:38:00,73.3,62.0,29.83,NW,312,13.0,-999.0,67,-99.99,,,0.00,weatherlink.com 1.10,2013-07-27 18:38:00,
2013-07-27 14:53:00,73.5,59.0,29.83,West,263,1.0,-999.0,61,-99.99,,,0.00,weatherlink.com 1.10,2013-07-27 18:53:00,
2013-07-27 15:08:00,72.8,59.0,29.83,WSW,256,8.0,-999.0,62,-99.99,,,0.00,weatherlink.com 1.10,2013-07-27 19:08:00,
2013-07-27 15:23:00,73.5,58.0,29.82,NW,304,8.0,-999.0,58,-99.99,,,0.00,weatherlink.com 1.10,2013-07-27 19:23:00,
2013-07-27 15:38:00,72.1,60.0,29.83,WSW,246,11.0,-999.0,65,-99.99,,,0.00,weatherlink.com 1.10,2013-07-27 19:38:00,
2013-07-27 15:53:00,73.9,58.0,29.82,West,277,7.0,-999.0,57,-99.99,,,0.00,weatherlink.com 1.10,2013-07-27 19:53:00,
2013-07-27 16:08:00,72.8,57.0,29.83,West,273,12.0,-999.0,58,-99.99,,,0.00,weatherlink.com 1.10,2013-07-27 20:08:00,
2013-07-27 16:23:00,73.0,56.0,29.83,WNW,283,6.0,-999.0,56,-99.99,,,0.00,weatherlink.com 1.10,2013-07-27 20:23:00,
2013-07-27 16:38:00,72.8,57.0,29.83,WNW,297,11.0,-999.0,59,-99.99,,,0.00,weatherlink.com 1.10,2013-07-27 20:38:00,
2013-07-27 16:53:00,72.2,57.0,29.83,West,271,4.0,-999.0,59,-99.99,,,0.00,weatherlink.com 1.10,2013-07-27 20:53:00,
2013-07-27 17:08:00,72.1,56.0,29.83,WNW,285,7.0,-999.0,57,-99.99,,,0.00,weatherlink.com 1.10,2013-07-27 21:08:00,
2013-07-27 17:23:00,71.8,55.0,29.83,WSW,248,4.0,-999.0,56,-99.99,,,0.00,weatherlink.com 1.10,2013-07-27 21:23:00,
2013-07-27 17:38:00,72.0,54.0,29.83,NW,305,8.0,-999.0,54,-99.99,,,0.00,weatherlink.com 1.10,2013-07-27 21:38:00,
2013-07-27 17:53:00,70.9,55.0,29.84,West,279,4.0,-999.0,58,-99.99,,,0.00,weatherlink.com 1.10,2013-07-27 21:53:00,
2013-07-27 18:08:00,71.7,55.0,29.84,WNW,288,7.0,-999.0,56,-99.99,,,0.00,weatherlink.com 1.10,2013-07-27 22:08:00,
2013-07-27 18:23:00,70.5,54.0,29.84,West,267,5.0,-999.0,56,-99.99,,,0.00,weatherlink.com 1.10,2013-07-27 22:23:00,
2013-07-27 18:38:00,70.7,55.0,29.84,West,266,12.0,-999.0,58,-99.99,,,0.00,weatherlink.com 1.10,2013-07-27 22:38:00,
2013-07-27 18:53:00,69.9,55.0,29.84,West,264,6.0,-999.0,59,-99.99,,,0.00,weatherlink.com 1.10,2013-07-27 22:53:00,
2013-07-27 19:08:00,68.6,54.0,29.85,WNW,287,9.0,-999.0,59,-99.99,,,0.00,weatherlink.com 1.10,2013-07-27 23:08:00,
2013-07-27 19:23:00,68.0,53.0,29.85,WNW,298,3.0,-999.0,60,-99.99,,,0.00,weatherlink.com 1.10,2013-07-27 23:23:00,
2013-07-27 19:38:00,68.9,54.0,29.85,WNW,292,1.0,-999.0,59,-99.99,,,0.00,weatherlink.com 1.10,2013-07-27 23:38:00,
2013-07-27 19:53:00,68.1,54.0,29.85,WNW,291,2.0,-999.0,61,-99.99,,,0.00,weatherlink.com 1.10,2013-07-27 23:53:00,
2013-07-27 20:08:00,68.3,55.0,29.86,WNW,289,2.0,-999.0,62,-99.99,,,0.00,weatherlink.com 1.10,2013-07-28 00:08:00,
2013-07-27 20:23:00,67.2,55.0,29.86,WNW,286,5.0,-999.0,64,-99.99,,,0.00,weatherlink.com 1.10,2013-07-28 00:23:00,
2013-07-27 20:38:00,65.6,54.0,29.86,WNW,296,6.0,-999.0,66,-99.99,,,0.00,weatherlink.com 1.10,2013-07-28 00:38:00,
2013-07-27 20:53:00,64.7,54.0,29.87,WNW,299,4.0,-999.0,68,-99.99,,,0.00,weatherlink.com 1.10,2013-07-28 00:53:00,
2013-07-27 21:08:00,63.8,54.0,29.87,WNW,283,2.0,-999.0,70,-99.99,,,0.00,weatherlink.com 1.10,2013-07-28 01:08:00,
2013-07-27 21:23:00,63.0,54.0,29.88,WNW,288,4.0,-999.0,72,-99.99,,,0.00,weatherlink.com 1.10,2013-07-28 01:23:00,
2013-07-27 21:38:00,62.8,53.0,29.89,West,278,8.0,-999.0,71,-99.99,,,0.00,weatherlink.com 1.10,2013-07-28 01:38:00,
2013-07-27 21:54:00,62.3,53.0,29.89,West,269,3.0,-999.0,71,-99.99,,,0.00,weatherlink.com 1.10,2013-07-28 01:54:00,
2013-07-27 22:09:00,61.7,53.0,29.90,WNW,290,2.0,-999.0,72,-99.99,,,0.00,weatherlink.com 1.10,2013-07-28 02:09:00,
2013-07-27 22:24:00,61.3,52.0,29.90,WNW,284,3.0,-999.0,71,-99.99,,,0.00,weatherlink.com 1.10,2013-07-28 02:24:00,
2013-07-27 22:39:00,60.9,51.0,29.90,WNW,295,3.0,-999.0,71,-99.99,,,0.00,weatherlink.com 1.10,2013-07-28 02:39:00,
2013-07-27 22:54:00,60.5,51.0,29.91,West,279,4.0,-999.0,72,-99.99,,,0.00,weatherlink.com 1.10,2013-07-28 02:54:00,
2013-07-27 23:09:00,59.7,51.0,29.91,West,269,2.0,-999.0,74,-99.99,,,0.00,weatherlink.com 1.10,2013-07-28 03:09:00,
2013-07-27 23:24:00,58.5,51.0,29.90,West,269,0.0,-999.0,76,-99.99,,,0.00,weatherlink.com 1.10,2013-07-28 03:24:00,
2013-07-27 23:39:00,57.6,51.0,29.90,West,269,1.0,-999.0,79,-99.99,,,0.00,weatherlink.com 1.10,2013-07-28 03:39:00,
2013-07-27 23:54:00,56.7,51.0,29.90,West,269,1.0,-999.0,81,-99.99,,,0.00,weatherlink.com 1.10,2013-07-28 03:54:00,